Location: Basin
(44.3800°N, 108.0380°W)
Time: 04:56:11
(UTC-06:00)

ISS - Visible Passes

Search period start: 20 October 2019 00:00
Search period end: 30 October 2019 00:00
Orbit: 411 x 421 km, 51.6° (Epoch: 20 October)

Date Brightness Start Highest point End Pass type
(mag) Time Alt. Az. Time Alt. Az. Time Alt. Az.
24 Oct -1.4 06:32:18 10° SSW 06:35:04 24° SE 06:37:51 10° E visible
25 Oct -0.9 05:44:41 10° SSE 05:46:38 15° SE 05:48:35 10° E visible
26 Oct -3.3 06:31:20 12° SW 06:34:21 61° SE 06:37:40 10° ENE visible
27 Oct -2.5 05:45:17 34° SSE 05:45:47 36° SE 05:48:54 10° ENE visible
28 Oct -0.6 04:59:04 15° E 04:59:04 15° E 04:59:56 10° E visible
28 Oct -3.6 06:31:59 25° W 06:33:45 59° NNW 06:37:06 10° NE visible
29 Oct -3.3 05:45:37 60° ENE 05:45:37 60° ENE 05:48:27 10° ENE visible
